This is the latest recevied weather packets stored in our database for station/object IK1AMC-3. If no packets are shown the sender has not sent any weather packets the latest 10 day(s).
| Time | Temp. | Humidity | Pressure | Rain* | Wind** | Luminosity | Snow |
|---|---|---|---|---|---|---|---|
| 1777825070 | 19.44° C | 59% | 1017.8 hPa | - | - | - | - |
| 1777822668 | 19.44° C | 62% | 1017.8 hPa | - | - | - | - |
| 1777821466 | 20° C | 59% | 1018 hPa | - | - | - | - |
| 1777815460 | 20° C | 55% | 1019.1 hPa | - | - | - | - |
| 1777811856 | 18.89° C | 57% | 1019.7 hPa | - | - | - | - |
| 1777810655 | 20.56° C | 54% | 1019.9 hPa | - | - | - | - |
| 1777807051 | 21.11° C | 54% | 1020 hPa | - | - | - | - |
| 1777804648 | 20.56° C | 54% | 1020.2 hPa | - | - | - | - |
| 1777803447 | 20.56° C | 53% | 1020.1 hPa | - | - | - | - |
| 1777802246 | 20° C | 54% | 1019.9 hPa | - | - | - | - |
| 1777801044 | 19.44° C | 55% | 1020 hPa | - | - | - | - |
| 1777799843 | 18.89° C | 58% | 1020.2 hPa | - | - | - | - |
| 1777798642 | 18.33° C | 59% | 1020.1 hPa | - | - | - | - |
| 1777797440 | 18.33° C | 59% | 1020.1 hPa | - | - | - | - |
| 1777796239 | 17.22° C | 63% | 1020 hPa | - | - | - | - |
| 1777795038 | 17.78° C | 62% | 1019.8 hPa | - | - | - | - |
| 1777793837 | 17.78° C | 59% | 1019.8 hPa | - | - | - | - |
| 1777792635 | 17.22° C | 62% | 1019.8 hPa | - | - | - | - |
| 1777791434 | 17.22° C | 58% | 1019.7 hPa | - | - | - | - |
| 1777790232 | 16.67° C | 58% | 1019.6 hPa | - | - | - | - |
| 1777789031 | 16.11° C | 62% | 1019.7 hPa | - | - | - | - |
| 1777787830 | 15° C | 67% | 1019.7 hPa | - | - | - | - |
| 1777786629 | 15° C | 67% | 1019.6 hPa | - | - | - | - |
| 1777785427 | 14.44° C | 66% | 1019.5 hPa | - | - | - | - |
| 1777784226 | 14.44° C | 66% | 1019.5 hPa | - | - | - | - |
* Rain since midnight (hover to see other rain measurements)
** Current wind speed in m/s (hover to see current wind gust speed)